TimeEDT,TemperatureF,Dew PointF,Humidity,Sea Level PressureIn,VisibilityMPH,Wind Direction,Wind SpeedMPH,Gust SpeedMPH,PrecipitationIn,Events,Conditions,WindDirDegrees,DateUTC
12:15 AM,53.6,48.2,82,30.02,10.0,NW,5.8,-,N/A,,Clear,320,2013-07-21 04:15:00
12:35 AM,51.8,48.2,88,30.02,10.0,NW,5.8,-,N/A,,Clear,310,2013-07-21 04:35:00
12:55 AM,51.8,48.2,88,30.02,10.0,NW,5.8,-,N/A,,Clear,310,2013-07-21 04:55:00
1:15 AM,51.8,50.0,94,30.02,10.0,NW,5.8,-,N/A,,Clear,320,2013-07-21 05:15:00
1:35 AM,51.8,50.0,94,30.02,10.0,NW,6.9,-,N/A,,Clear,320,2013-07-21 05:35:00
1:55 AM,51.8,50.0,94,30.02,10.0,NW,6.9,-,N/A,,Clear,320,2013-07-21 05:55:00
2:15 AM,51.8,50.0,94,30.02,10.0,NW,5.8,-,N/A,,Clear,320,2013-07-21 06:15:00
2:35 AM,51.8,50.0,94,30.02,10.0,NNW,5.8,-,N/A,,Clear,330,2013-07-21 06:35:00
2:55 AM,51.8,50.0,94,30.02,10.0,NW,4.6,-,N/A,,Clear,320,2013-07-21 06:55:00
3:15 AM,51.8,50.0,94,30.02,10.0,NNW,5.8,-,N/A,,Clear,330,2013-07-21 07:15:00
3:35 AM,51.8,50.0,94,30.02,10.0,NW,4.6,-,N/A,,Clear,310,2013-07-21 07:35:00
3:55 AM,51.8,50.0,94,30.02,10.0,NNW,4.6,-,N/A,,Clear,330,2013-07-21 07:55:00
4:15 AM,50.0,50.0,100,30.02,10.0,NNW,3.5,-,N/A,,Clear,330,2013-07-21 08:15:00
4:35 AM,50.0,50.0,100,30.02,10.0,Calm,Calm,-,N/A,,Clear,0,2013-07-21 08:35:00
4:55 AM,50.0,50.0,100,30.02,10.0,Calm,Calm,-,N/A,,Clear,0,2013-07-21 08:55:00
5:15 AM,50.0,50.0,100,30.02,10.0,Calm,Calm,-,N/A,,Clear,0,2013-07-21 09:15:00
5:35 AM,48.2,48.2,100,30.03,10.0,Calm,Calm,-,N/A,,Clear,0,2013-07-21 09:35:00
5:55 AM,51.8,50.0,94,30.03,10.0,Calm,Calm,-,N/A,,Clear,0,2013-07-21 09:55:00
6:15 AM,51.8,51.8,100,30.03,10.0,NNE,3.5,-,N/A,,Clear,30,2013-07-21 10:15:00
6:35 AM,51.8,50.0,94,30.04,10.0,Calm,Calm,-,N/A,,Clear,0,2013-07-21 10:35:00
6:55 AM,50.0,50.0,100,30.05,10.0,Calm,Calm,-,N/A,,Clear,0,2013-07-21 10:55:00
7:15 AM,51.8,51.8,100,30.05,10.0,East,3.5,-,N/A,,Clear,80,2013-07-21 11:15:00
7:35 AM,53.6,51.8,94,30.05,10.0,East,6.9,-,N/A,,Clear,80,2013-07-21 11:35:00
7:55 AM,55.4,51.8,88,30.06,10.0,East,8.1,-,N/A,,Clear,90,2013-07-21 11:55:00
8:15 AM,55.4,51.8,88,30.06,10.0,East,6.9,-,N/A,,Clear,80,2013-07-21 12:15:00
8:35 AM,57.2,53.6,88,30.06,10.0,ESE,9.2,-,N/A,,Clear,110,2013-07-21 12:35:00
8:55 AM,59.0,53.6,82,30.06,10.0,East,6.9,-,N/A,,Clear,100,2013-07-21 12:55:00
9:15 AM,60.8,51.8,72,30.07,10.0,ESE,8.1,-,N/A,,Mostly Cloudy,120,2013-07-21 13:15:00
9:35 AM,62.6,51.8,68,30.07,10.0,ESE,9.2,-,N/A,,Partly Cloudy,120,2013-07-21 13:35:00
9:55 AM,62.6,53.6,72,30.07,10.0,ESE,8.1,-,N/A,,Clear,120,2013-07-21 13:55:00
10:15 AM,62.6,53.6,72,30.07,10.0,ESE,11.5,-,N/A,,Partly Cloudy,120,2013-07-21 14:15:00
10:35 AM,64.4,53.6,68,30.07,10.0,ESE,9.2,-,N/A,,Scattered Clouds,110,2013-07-21 14:35:00
10:55 AM,66.2,53.6,64,30.07,10.0,ESE,9.2,-,N/A,,Partly Cloudy,110,2013-07-21 14:55:00
11:15 AM,66.2,51.8,60,30.07,10.0,SE,8.1,16.1,N/A,,Scattered Clouds,130,2013-07-21 15:15:00
11:35 AM,66.2,48.2,52,30.07,10.0,SE,10.4,-,N/A,,Mostly Cloudy,130,2013-07-21 15:35:00
11:55 AM,66.2,50.0,56,30.06,10.0,South,9.2,-,N/A,,Clear,180,2013-07-21 15:55:00
12:15 PM,66.2,48.2,52,30.06,10.0,SE,8.1,-,N/A,,Clear,140,2013-07-21 16:15:00
12:35 PM,68.0,48.2,49,30.05,10.0,East,6.9,16.1,N/A,,Clear,100,2013-07-21 16:35:00
12:55 PM,68.0,48.2,49,30.05,10.0,ESE,8.1,-,N/A,,Partly Cloudy,110,2013-07-21 16:55:00
1:15 PM,68.0,48.2,49,30.04,10.0,SSE,8.1,-,N/A,,Partly Cloudy,160,2013-07-21 17:15:00
1:35 PM,69.8,46.4,43,30.05,10.0,SE,5.8,-,N/A,,Scattered Clouds,140,2013-07-21 17:35:00
1:55 PM,69.8,48.2,46,30.04,10.0,ESE,4.6,-,N/A,,Mostly Cloudy,120,2013-07-21 17:55:00
2:15 PM,68.0,48.2,49,30.04,10.0,South,8.1,-,N/A,,Mostly Cloudy,190,2013-07-21 18:15:00
2:35 PM,69.8,48.2,46,30.04,10.0,South,12.7,16.1,N/A,,Partly Cloudy,170,2013-07-21 18:35:00
2:55 PM,69.8,48.2,46,30.03,10.0,SSE,8.1,-,N/A,,Clear,150,2013-07-21 18:55:00
3:15 PM,69.8,48.2,46,30.03,10.0,SSE,11.5,16.1,N/A,,Clear,150,2013-07-21 19:15:00
3:35 PM,69.8,48.2,46,30.02,10.0,ESE,12.7,-,N/A,,Partly Cloudy,120,2013-07-21 19:35:00
3:55 PM,69.8,48.2,46,30.02,10.0,SSE,9.2,-,N/A,,Partly Cloudy,160,2013-07-21 19:55:00
4:15 PM,71.6,46.4,41,30.01,10.0,SSE,5.8,-,N/A,,Clear,160,2013-07-21 20:15:00
4:35 PM,71.6,46.4,41,30.00,10.0,East,3.5,-,N/A,,Clear,100,2013-07-21 20:35:00
5:15 PM,71.6,51.8,50,30.00,10.0,South,9.2,-,N/A,,Clear,180,2013-07-21 21:15:00
5:35 PM,71.6,51.8,50,29.99,10.0,SSE,8.1,-,N/A,,Clear,160,2013-07-21 21:35:00
5:55 PM,71.6,48.2,43,29.99,10.0,Calm,Calm,-,N/A,,Mostly Cloudy,0,2013-07-21 21:55:00
6:15 PM,71.6,48.2,43,29.98,10.0,South,4.6,-,N/A,,Partly Cloudy,180,2013-07-21 22:15:00
6:35 PM,71.6,51.8,50,29.97,10.0,SW,5.8,-,N/A,,Clear,220,2013-07-21 22:35:00
6:55 PM,69.8,51.8,53,29.97,10.0,SSE,6.9,-,N/A,,Clear,160,2013-07-21 22:55:00
7:15 PM,68.0,51.8,56,29.97,10.0,South,6.9,-,N/A,,Clear,170,2013-07-21 23:15:00
7:35 PM,68.0,53.6,60,29.97,10.0,South,5.8,-,N/A,,Clear,170,2013-07-21 23:35:00
7:55 PM,66.2,53.6,64,29.98,10.0,South,8.1,-,N/A,,Clear,180,2013-07-21 23:55:00
8:15 PM,66.2,53.6,64,29.98,10.0,SSE,6.9,-,N/A,,Clear,160,2013-07-22 00:15:00
8:35 PM,64.4,51.8,64,29.98,10.0,SSE,9.2,-,N/A,,Clear,160,2013-07-22 00:35:00
8:55 PM,62.6,51.8,68,29.99,10.0,South,5.8,-,N/A,,Clear,170,2013-07-22 00:55:00
9:15 PM,60.8,51.8,72,29.99,10.0,SSE,5.8,-,N/A,,Clear,160,2013-07-22 01:15:00
9:35 PM,60.8,51.8,72,29.99,10.0,SSE,5.8,-,N/A,,Mostly Cloudy,150,2013-07-22 01:35:00
9:55 PM,60.8,51.8,72,29.99,10.0,SSE,5.8,-,N/A,,Overcast,150,2013-07-22 01:55:00
10:15 PM,60.8,51.8,72,29.99,10.0,ESE,5.8,-,N/A,,Mostly Cloudy,120,2013-07-22 02:15:00
10:35 PM,60.8,51.8,72,29.99,10.0,SE,4.6,-,N/A,,Mostly Cloudy,130,2013-07-22 02:35:00
10:55 PM,60.8,53.6,77,29.99,10.0,SE,6.9,-,N/A,,Overcast,140,2013-07-22 02:55:00
11:15 PM,60.8,53.6,77,29.99,10.0,SE,6.9,-,N/A,,Overcast,130,2013-07-22 03:15:00
11:35 PM,60.8,53.6,77,29.99,10.0,SE,6.9,-,N/A,,Overcast,140,2013-07-22 03:35:00
11:55 PM,60.8,53.6,77,29.98,10.0,SE,8.1,-,N/A,,Mostly Cloudy,130,2013-07-22 03:55:00